EW3861 Weather Reports


time (UTC)temp
F
wind
direction
speed
knots
gust
knots
rain 1hr
in
rain 24hr
in
rain mn
in
humidity
%
barometer
mb
20260504020110 41 244 0.0 0.0 0.00 0.00 0.00 68 1009.2
20260504014604 42 244 0.0 0.0 0.00 0.00 0.00 65 1009.1
20260504013017 43 244 0.0 0.0 0.00 0.00 0.00 62 1008.9
20260504011611 44 244 0.0 0.0 0.00 0.00 0.00 58 1008.7
20260504010023 46 244 0.0 0.0 0.00 0.00 0.00 57 1008.6
20260504004503 47 244 0.0 0.0 0.00 0.00 0.00 56 1008.3
20260504003058 48 244 0.0 0.0 0.00 0.00 0.00 50 1008.2
20260504001517 49 244 0.0 0.0 0.00 0.00 0.00 46 1008.0
20260504000130 50 244 0.0 0.0 0.00 0.00 0.00 45 1007.9
20260503234519 50 326 0.0 0.0 0.00 0.00 0.00 43 1007.7
20260503233120 51 310 0.0 0.0 0.00 0.00 0.00 43 1007.6
20260503231531 51 306 0.0 0.0 0.00 0.00 0.00 42 1007.4
20260503230003 51 288 0.0 0.0 0.00 0.00 0.00 43 1007.0
20260503224555 52 151 0.0 0.0 0.00 0.00 0.00 42 1006.9
20260503223014 52 261 0.0 0.0 0.00 0.00 0.00 41 1006.7
20260503221610 52 302 0.0 0.0 0.00 0.00 0.00 40 1006.5
20260503220032 52 311 0.0 0.0 0.00 0.00 0.00 43 1006.4
20260503214510 52 268 0.0 0.0 0.00 0.00 0.00 42 1006.1
20260503213100 53 288 0.0 0.0 0.00 0.00 0.00 42 1005.9
20260503211516 53 341 0.0 0.0 0.00 0.00 0.00 43 1005.6
20260503210106 53 302 0.0 0.0 0.00 0.00 0.00 40 1005.3
20260503204545 53 306 0.0 0.0 0.00 0.00 0.00 42 1005.1
20260503203012 53 313 0.0 0.0 0.00 0.00 0.00 43 1005.1
20260503201601 54 130 0.0 0.0 0.00 0.00 0.00 42 1004.9
20260503200018 53 98 0.0 0.0 0.00 0.00 0.00 43 1005.0
20260503194505 53 298 0.0 0.0 0.00 0.00 0.00 44 1005.0
20260503193114 52 45 0.0 0.0 0.00 0.00 0.00 47 1004.8
20260503191514 52 319 0.0 0.0 0.00 0.00 0.00 51 1005.0
20260503190107 52 311 0.0 0.0 0.00 0.00 0.00 49 1005.1
20260503184528 52 120 0.0 0.0 0.00 0.00 0.00 50 1004.9
20260503183122 51 46 0.0 0.0 0.00 0.00 0.00 52 1005.0
20260503181554 51 321 0.0 0.0 0.00 0.00 0.00 52 1005.0
20260503180016 51 90 0.0 0.0 0.00 0.00 0.00 51 1005.1
20260503174622 52 313 0.0 0.0 0.00 0.00 0.00 51 1005.0
20260503173052 51 84 0.0 0.0 0.00 0.00 0.00 53 1004.8
20260503171503 49 83 0.0 0.0 0.00 0.00 0.00 57 1005.0
20260503120105 44 344 0.0 0.0 0.00 0.00 0.00 76 1005.3
20260503110111 43 294 0.0 0.0 0.00 0.00 0.00 78 1005.7
20260503090110 45 174 0.0 0.0 0.00 0.00 0.00 80 1006.1
20260503081547 45 81 0.0 0.0 0.00 0.00 0.00 79 1006.2
20260503071511 46 94 0.0 0.0 0.00 0.00 0.00 76 1006.8
20260503070118 46 289 0.0 0.0 0.00 0.00 0.00 76 1007.0
20260503054612 46 303 0.0 0.0 0.00 0.00 0.00 77 1008.0
20260503053034 47 55 0.0 0.0 0.00 0.00 0.00 83 1008.1
20260503051525 47 55 0.0 0.0 0.00 0.00 0.00 88 1008.1
20260503050110 47 55 0.0 0.0 0.00 0.00 0.00 91 1008.1
20260503044541 48 226 0.0 0.0 0.00 0.00 0.00 92 1008.4
20260503043007 48 226 0.0 0.0 0.00 0.00 0.00 92 1008.5
20260503041558 48 226 0.0 0.0 0.00 0.00 0.00 92 1008.8
20260503040002 48 226 0.0 0.0 0.00 0.00 0.00 92 1009.0
20260503034612 48 226 0.0 0.0 0.00 0.00 0.00 91 1008.9
20260503033025 48 226 0.0 0.0 0.00 0.00 0.00 91 1008.9
20260503031613 48 226 0.0 0.0 0.00 0.00 0.00 90 1009.1
20260503030028 48 226 0.0 0.0 0.00 0.00 0.00 90 1009.1
20260503024633 48 226 0.0 0.0 0.00 0.00 0.00 90 1009.1
20260503023058 49 226 0.0 0.0 0.00 0.00 0.00 89 1009.1